Regional Weather Roundup
Issued by NWS Upton, NY

Current Version | Previous Version | Text Only | Print | Product List | Glossary On
Versions: 1 2 3 4 5 6 7 8 9 10 11 12 13 14 15 16 17 18 19 20 21 22 23 24 25 26 27 28 29 30 31 32 33 34 35 36 37 38 39 40 41 42 43 44 45 46 47 48 49 50
000 ASUS41 KOKX 272007 RWROKX REGIONAL WEATHER ROUNDUP NATIONAL WEATHER SERVICE NEW YORK NY 400 PM EDT FRI MAR 27 2015 NOTE: "FAIR" INDICATES FEW OR NO CLOUDS BELOW 12,000 FEET WITH NO SIGNIFICANT WEATHER AND/OR OBSTRUCTIONS TO VISIBILITY. NYZ071-072-176-178-NJZ106-104-272100- NEW YORK CITY METRO AREA CITY SKY/WX TMP DP RH WIND PRES REMARKS CENTRAL PARK CLOUDY 45 31 58 N9 29.73F LAGUARDIA APRT CLOUDY 45 32 60 NW6 29.71F KENNEDY INTL CLOUDY 46 33 60 N12 29.72F NEWARK/LIBERTY CLOUDY 46 31 55 NW10 29.72F BRNX BOT. GARD N/A 45 32 61 NW9 29.70F TETERBORO CLOUDY 46 29 51 N9 29.71F $$ NYZ177-179-078>081-272100- LONG ISLAND NEW YORK CITY SKY/WX TMP DP RH WIND PRES REMARKS FARMINGDALE CLOUDY 45 33 63 N10 29.73R ISLIP CLOUDY 45 34 65 NW7 29.70R SHIRLEY LGT RAIN 43 37 79 N6 29.73R WESTHAMPTON LGT RAIN 42 37 82 N6 29.73R MONTAUK POINT N/A 41 37 86 NW6 29.71S $$ NYZ052-065-067-272100- HUDSON VALLEY CITY SKY/WX TMP DP RH WIND PRES REMARKS WHITE PLAINS CLOUDY 44 32 62 N6 29.70F NEWBURGH CLOUDY 43 30 61 VRB5 29.73S MONTGOMERY CLOUDY 43 28 55 NW12 29.71R POUGHKEEPSIE CLOUDY 45 29 53 N7 29.72S ALBANY CLOUDY 45 28 51 NW15 29.72F $$ NJZ001-105-106-008-010-013-015-019>022-104-272100- NEW JERSEY CITY SKY/WX TMP DP RH WIND PRES REMARKS NEWARK/LIBERTY CLOUDY 46 31 55 NW10 29.72F TETERBORO CLOUDY 46 29 51 N9 29.71F CALDWELL CLOUDY 45 28 51 NW8 29.72F MORRISTOWN CLOUDY 45 28 53 N10 29.74S SOMERVILLE CLOUDY 46 29 51 NW9 29.73F SUSSEX CLOUDY 43 28 55 NW9 29.74S ANDOVER N/A 41 27 57 N7 29.74S TRENTON CLOUDY 45 29 53 N10 29.72F MILLVILLE LGT RAIN 43 38 82 W5 29.76R ATLANTIC CITY CLOUDY 42 38 85 NW7 29.75S WRIGHTSTOWN CLOUDY 45 33 62 NW13 29.71F TOMS RIVER CLOUDY 45 36 70 NW8 29.73F BELMAR CLOUDY 45 30 57 NW8 29.72F $$ PAZ047>061-062-071-272100- EASTERN PENNSYLVANIA CITY SKY/WX TMP DP RH WIND PRES REMARKS PHILADELPHIA CLOUDY 47 27 45 N13G18 29.75S ALLENTOWN CLOUDY 46 28 49 NE10 29.73F SCRANTON CLOUDY 41 24 51 N12 29.74F $$ CTZ002-004>006-009-010-012-RIZ004-006-007-MAZ004-011-015-272100- SOUTHERN NEW ENGLAND IN CT CITY SKY/WX TMP DP RH WIND PRES REMARKS BRADLEY INTL CLOUDY 44 32 62 NW12 29.70R HARTFORD CLOUDY 44 32 62 W9 29.72R DANBURY CLOUDY 43 28 55 NW6 29.74R WTRBRY/OXFORD CLOUDY 41 28 60 NW6 29.73R BRIDGEPORT CLOUDY 46 33 60 N8 29.72R MERIDEN CLOUDY 43 32 65 NW8 29.72R NEW HAVEN CLOUDY 45 33 63 NW7 29.72R CHESTER CLOUDY 43 36 75 N6 29.71R GROTON CLOUDY 44 37 76 N7 29.70S WILLIMANTIC CLOUDY 44 34 67 NW5 29.69F IN RI CITY SKY/WX TMP DP RH WIND PRES REMARKS PROVIDENCE CLOUDY 42 37 82 N8 29.70R BLOCK ISLAND CLOUDY 41 37 87 N5 29.69S WESTERLY CLOUDY 42 38 85 NW7 29.70S IN MA CITY SKY/WX TMP DP RH WIND PRES REMARKS BOSTON CLOUDY 40 35 83 E7 29.70S WORCESTER CLOUDY 40 35 83 SW3 29.66S WESTFIELD CLOUDY 43 31 62 NW9 29.70S PROVINCETOWN CLOUDY 37 34 87 NW7 29.70R WCI 32 NANTUCKET CLOUDY 41 37 86 N16 29.64F $$ ANZ330-335-338-340-345-350-353-355-272100- COASTAL MARINE OBSERVATIONS STATION/POSITION TIME SKY/WX TEMP WIND PRES VSBY WAVE AIR SEA DIR/SP/G HT/PER (UTC) (F) (DEG/KT/KT) (MB) (MI) (FT/S) NY HARB ENTRANCE 1950 41 38 320/ 4/ 6 1006.4 3/10 4S FIRE IS 1903 36 N/A 4/12 20S FIRE ISLAND 1850 38 1006.5 5/10 23SW MTP 1950 N/A 7/11 HUDSON CANYON NOT AVBL EXECUTION ROCKS NOT AVBL WESTERN LI SOUND NOT AVBL CENTRAL LI SOUND NOT AVBL EASTERN LI SOUND NOT AVBL ROBBINS REEF 1900 45 330/ 9/ 12 1005.7 $$ >>>>>>>>>>>>>>>>>>>>>>>>>>>> KEY <<<<<<<<<<<<<<<<<<<<<<<<<<< > < > SKY/WX - SKY CONDITION/PRESENT WEATHER < > TMP - TEMPERATURE IN FAHRENHEIT < > DP - DEWPOINT IN FAHRENHEIT < > RH - RELATIVE HUMIDITY IN PERCENT < > WIND - DIRECTION AND SPEED IN MPH < > PRES - MEAN SEA LEVEL PRESSURE IN INCHES OF HG < > WCI - WIND CHILL INDEX < > VSB - VISIBILITY IN MILES < > HX - HEAT INDEX < > TC - TEMPERATURE IN CELSIUS < > VRB - VARIABLE WIND DIRECTION < > < >>>>>>>>>>>>>>>>>>>>>>>>>>>> KEY <<<<<<<<<<<<<<<<<<<<<<<<<<<

USA.gov is the U.S. government's official web portal to all federal, state and local government web resources and services.